Content
SEND FEEDBACK

Daily
Averages
Monthly
Summary
Thailand

KHON KAEN, THAILAND


Home > Asia > Thailand
Elevation: 515 feet     Latitude: 16 20N     Longitude: 102 51E

WEATHER
 
SELECT A DAY
Number of Records: 65,563;   Date Range: 12/16/03 - 7/29/14
 
SHARE

PRINT THIS DATA

[ ← Previous Day ]
WEATHER ALMANAC - MARCH 5, 2013
[ Next Day → ]
[ °C ]   °F
Weather ElementAverageHighLow
Temperature74.5 °F82.4 °F (5:00 pm)66.2 °F (5:00 am)
Dewpoint62.5 °F64.4 °F (4:00 am)59 °F (1:00 pm)
Humidity66.2 %88 % (4:00 am)41 % (1:00 pm)
Barometer30.05 in30.12 in (8:00 am)29.97 in (7:00 pm)
Wind Speed7.1 mph10.4 mph (5:00 am)
Weather ElementAverage
Visibility5.7 mi
Wind DirectionESE (127 °)

Weather ElementTotal
Precipitation---
Cooling Degree Days9.3 (Base 65)
Growing Degree Days24.3 (Base 50)
Averaged from 20 records on March 5, 2013
WEATHER CONDITIONS BREAKOUT
WIND DIRECTION BREAKOUT
WEATHER BY HOUR - MARCH 5, 2013
[ °C ]   °F
Local TimeTemperatureDewpointHumidityBarometerVisibilityWind DirectionWind SpeedGust SpeedPrecipitationEventsConditions
4:00 AM68.0 °F64.4 °F88 %30.04 in5.0 miNorth (10°)8.1 mphMostly Cloudy
5:00 AM66.2 °F62.6 °F88 %30.06 in5.0 miNorth (360°)10.4 mphMostly Cloudy
6:00 AM66.2 °F62.6 °F88 %30.06 in5.0 miNorth (10°)6.9 mphOvercast
7:00 AM67.0 °F61.0 °F75 %30.09 in4.0 miNorth5.8 mphMist
7:00 AM66.2 °F62.6 °F88 %30.09 in4.3 miNorth (360°)5.8 mphOvercast
8:00 AM68.0 °F62.6 °F83 %30.12 in5.0 miNNE (20°)6.9 mphOvercast
9:00 AM69.8 °F62.6 °F78 %30.12 in6.2 miNE (40°)6.9 mphMostly Cloudy
10:00 AM73.4 °F62.6 °F69 %30.12 in6.2 miNE (40°)9.2 mphMostly Cloudy
11:00 AM77.0 °F62.6 °F61 %30.12 in6.2 miENE (70°)5.8 mphMostly Cloudy
12:00 PM77.0 °F62.6 °F61 %30.09 in6.2 miNE (40°)8.1 mphMostly Cloudy
1:00 PM78.8 °F60.8 °F54 %30.06 in6.2 miNNE (30°)9.2 mphMostly Cloudy
1:00 PM78.0 °F59.0 °F41 %30.05 in6.0 miNorth (10°)5.8 mphScattered Clouds
2:00 PM80.6 °F62.6 °F54 %30.04 in6.2 miNE (50°)9.2 mphMostly Cloudy
3:00 PM80.6 °F62.6 °F54 %29.98 in6.2 miNorth (360°)8.1 mphMostly Cloudy
4:00 PM80.6 °F62.6 °F54 %29.98 in6.2 miNE (50°)8.1 mphMostly Cloudy
5:00 PM82.4 °F62.6 °F51 %29.98 inNNE (20°)8.1 mphClear
6:00 PM80.6 °F62.6 °F54 %29.98 inNorth (360°)6.9 mphClear
7:00 PM78.0 °F62.0 °F48 %29.97 in6.0 miNorth (350°)3.5 mphScattered Clouds
7:00 PM77.0 °F64.4 °F65 %29.98 in6.2 miNorth (350°)4.6 mphPartly Cloudy
8:00 PM75.2 °F64.4 °F69 %30.01 in6.2 miNorth (10°)4.6 mphPartly Cloudy
Hourly data recorded from VTUK, located miles away from Khon Kaen, Thailand







STORIES FROM OUR PARTNERS